Tracking 20369 objects as of 19-Feb-2020
HD Live streaming from Space Station
objects crossing your sky now

OPS 1948

Track OPS 1948 now!
OPS 1948 is classified as:


NORAD ID: 11558
Int'l Code: 1979-086A
Perigee: 30,530.5 km
Apogee: 41,123.5 km
Inclination: 6.1 °
Period: 1,437.8 minutes
Semi major axis: 42197 km
RCS: Unknown
Launch date: October 1, 1979
Source: United States (US)
Launch site: AIR FORCE EASTERN TEST RANGE (AFETR)
aabbcc
Your satellite tracking list
Your tracking list is empty




NASA's NSSDC Master Catalog

Two Line Element Set (TLE):
1 11558U 79086A   20049.87218433 -.00000262 +00000-0 +00000-0 0  9992
2 11558 006.0873 353.6220 1255153 054.2351 326.4544 01.00153409003069
Source of the keplerian elements: McCants